EN

Hourly Weather Plymouth

Today, 20 October, Tuesday

Time Temperature Precipitation Wind Pressure Humidity
00:00 +13°C° 0.6 mm 12 mps 747 mmHg 88%
01:00 +13°C° 0.1 mm 11 mps 747 mmHg 90%
02:00 +13°C° 0.1 mm 10 mps 747 mmHg 92%
03:00 +13°C° 0.1 mm 10 mps 747 mmHg 94%
04:00 +13°C° 0.2 mm 10 mps 747 mmHg 93%
05:00 +13°C° 0.2 mm 10 mps 747 mmHg 93%
06:00 +13°C° 0.2 mm 10 mps 747 mmHg 93%
07:00 +13°C° 0.2 mm 11 mps 747 mmHg 91%
08:00 +13°C° 0.2 mm 11 mps 747 mmHg 90%
09:00 +14°C° 0.2 mm 12 mps 747 mmHg 88%
10:00 +14°C° 0.3 mm 12 mps 747 mmHg 87%
11:00 +14°C° 0.3 mm 12 mps 747 mmHg 86%
12:00 +14°C° 0.3 mm 12 mps 747 mmHg 85%
13:00 +14°C° 0.3 mm 11 mps 747 mmHg 86%
14:00 +14°C° 0.3 mm 11 mps 747 mmHg 86%
15:00 +14°C° 0.3 mm 10 mps 747 mmHg 86%
16:00 +14°C° 0.3 mm 10 mps 746 mmHg 88%
17:00 +14°C° 0.3 mm 10 mps 746 mmHg 89%
18:00 +13°C° 0.3 mm 10 mps 746 mmHg 91%
19:00 +13°C° 0.2 mm 9 mps 746 mmHg 91%
20:00 +13°C° 0.2 mm 8 mps 746 mmHg 92%
21:00 +14°C° 0.2 mm 7 mps 746 mmHg 92%
22:00 +14°C° 0 mm 6 mps 746 mmHg 93%
23:00 +14°C° 0 mm 5 mps 745 mmHg 94%

Tomorrow, 21 October, Wednesday

Time Temperature Precipitation Wind Pressure Humidity
00:00 +13°C° 0 mm 4 mps 745 mmHg 95%
01:00 +13°C° 0.4 mm 3 mps 744 mmHg 96%
02:00 +14°C° 0.4 mm 2 mps 744 mmHg 97%
03:00 +14°C° 0.4 mm 1 mps 743 mmHg 98%
04:00 +14°C° 0.9 mm 2 mps 743 mmHg 98%
05:00 +14°C° 0.9 mm 2 mps 743 mmHg 98%
06:00 +13°C° 0.9 mm 3 mps 743 mmHg 97%
07:00 +13°C° 0.8 mm 4 mps 744 mmHg 97%
08:00 +13°C° 0.8 mm 5 mps 745 mmHg 96%
09:00 +12°C° 0.8 mm 7 mps 746 mmHg 96%
10:00 +12°C° 0.6 mm 7 mps 746 mmHg 95%
11:00 +14°C° 0.6 mm 7 mps 747 mmHg 95%
12:00 +13°C° 0.6 mm 8 mps 748 mmHg 94%
13:00 +15°C° 0.1 mm 7 mps 748 mmHg 92%
14:00 +15°C° 0.1 mm 7 mps 748 mmHg 91%
15:00 +15°C° 0.1 mm 7 mps 749 mmHg 89%
16:00 +14°C° 0.1 mm 6 mps 749 mmHg 91%
17:00 +13°C° 0.1 mm 5 mps 750 mmHg 94%
18:00 +12°C° 0.1 mm 4 mps 750 mmHg 96%
19:00 +11°C° 0 mm 4 mps 751 mmHg 96%
20:00 +11°C° 0 mm 4 mps 751 mmHg 95%
21:00 +10°C° 0 mm 4 mps 752 mmHg 95%
22:00 +10°C° 0 mm 4 mps 752 mmHg 95%
23:00 +10°C° 0 mm 4 mps 752 mmHg 95%

Day after tomorrow, 22 October, Thursday

Time Temperature Precipitation Wind Pressure Humidity
00:00 +10°C° 0 mm 4 mps 753 mmHg 95%
01:00 +10°C° 0 mm 3 mps 753 mmHg 95%
02:00 +10°C° 0 mm 3 mps 753 mmHg 95%
03:00 +9°C° 0 mm 2 mps 753 mmHg 94%
04:00 +9°C° 0 mm 2 mps 753 mmHg 94%
05:00 +9°C° 0 mm 2 mps 753 mmHg 94%
06:00 +9°C° 0 mm 2 mps 753 mmHg 94%
07:00 +10°C° 0.1 mm 2 mps 753 mmHg 93%
08:00 +12°C° 0.1 mm 1 mps 754 mmHg 91%
09:00 +13°C° 0.1 mm 1 mps 754 mmHg 90%
10:00 +14°C° 0.1 mm 2 mps 754 mmHg 84%
11:00 +15°C° 0.1 mm 2 mps 754 mmHg 79%
12:00 +16°C° 0.1 mm 3 mps 754 mmHg 74%
13:00 +16°C° 0 mm 3 mps 754 mmHg 75%
14:00 +15°C° 0 mm 4 mps 754 mmHg 77%
15:00 +15°C° 0 mm 4 mps 754 mmHg 79%
16:00 +13°C° 0.1 mm 4 mps 754 mmHg 84%
17:00 +12°C° 0.1 mm 4 mps 754 mmHg 89%
18:00 +11°C° 0.1 mm 4 mps 753 mmHg 95%
19:00 +11°C° 0.1 mm 4 mps 753 mmHg 95%
20:00 +10°C° 0.1 mm 5 mps 753 mmHg 95%
21:00 +10°C° 0.1 mm 5 mps 753 mmHg 96%
22:00 +10°C° 0.1 mm 5 mps 753 mmHg 95%
23:00 +11°C° 0.1 mm 6 mps 753 mmHg 95%

23 October, Friday

Time Temperature Precipitation Wind Pressure Humidity
00:00 +11°C° 0.1 mm 6 mps 753 mmHg 95%
01:00 +11°C° 0.1 mm 6 mps 753 mmHg 95%
02:00 +11°C° 0.1 mm 6 mps 752 mmHg 95%
03:00 +11°C° 0.1 mm 6 mps 752 mmHg 94%
04:00 +11°C° 0.2 mm 6 mps 752 mmHg 95%
05:00 +11°C° 0.2 mm 6 mps 752 mmHg 95%
06:00 +11°C° 0.2 mm 6 mps 752 mmHg 96%
07:00 +10°C° 0.1 mm 6 mps 753 mmHg 92%
08:00 +10°C° 0.1 mm 6 mps 753 mmHg 89%
09:00 +10°C° 0.1 mm 7 mps 753 mmHg 85%
10:00 +10°C° 0.4 mm 7 mps 754 mmHg 84%
11:00 +10°C° 0.4 mm 8 mps 754 mmHg 82%
12:00 +10°C° 0.4 mm 8 mps 755 mmHg 81%
13:00 +11°C° 0 mm 8 mps 755 mmHg 78%
14:00 +11°C° 0 mm 8 mps 755 mmHg 74%
15:00 +11°C° 0 mm 7 mps 755 mmHg 71%
16:00 +10°C° 0 mm 7 mps 756 mmHg 76%
17:00 +9°C° 0 mm 6 mps 756 mmHg 81%
18:00 +8°C° 0 mm 6 mps 757 mmHg 85%
19:00 +7°C° 0 mm 5 mps 757 mmHg 85%
20:00 +7°C° 0 mm 5 mps 758 mmHg 85%
21:00 +7°C° 0 mm 5 mps 758 mmHg 85%
22:00 +7°C° 0 mm 5 mps 758 mmHg 85%
23:00 +6°C° 0 mm 5 mps 759 mmHg 85%

24 October, Saturday

Time Temperature Precipitation Wind Pressure Humidity
00:00 +6°C° 0 mm 5 mps 759 mmHg 85%
01:00 +7°C° 0 mm 5 mps 758 mmHg 84%
02:00 +7°C° 0 mm 6 mps 758 mmHg 84%
03:00 +7°C° 0 mm 6 mps 758 mmHg 84%
04:00 +8°C° 0 mm 7 mps 757 mmHg 83%
05:00 +9°C° 0 mm 8 mps 757 mmHg 82%
06:00 +10°C° 0 mm 8 mps 757 mmHg 82%
07:00 +10°C° 0 mm 9 mps 756 mmHg 83%
08:00 +11°C° 0 mm 10 mps 756 mmHg 84%
09:00 +12°C° 0 mm 11 mps 755 mmHg 86%
10:00 +12°C° 0 mm 11 mps 755 mmHg 87%
11:00 +13°C° 0 mm 11 mps 755 mmHg 89%
12:00 +13°C° 0 mm 12 mps 754 mmHg 91%
13:00 +14°C° 0.1 mm 12 mps 753 mmHg 90%
14:00 +14°C° 0.1 mm 12 mps 753 mmHg 90%
15:00 +14°C° 0.1 mm 12 mps 752 mmHg 90%
16:00 +14°C° 0.2 mm 13 mps 752 mmHg 91%
17:00 +14°C° 0.2 mm 13 mps 751 mmHg 92%
18:00 +13°C° 0.2 mm 14 mps 751 mmHg 93%
19:00 +14°C° 0.4 mm 14 mps 750 mmHg 93%
20:00 +14°C° 0.4 mm 15 mps 750 mmHg 92%
21:00 +14°C° 0.4 mm 15 mps 750 mmHg 91%
22:00 +13°C° 1.9 mm 12 mps 749 mmHg 92%
23:00 +12°C° 1.9 mm 9 mps 749 mmHg 93%

25 October, Sunday

Time Temperature Precipitation Wind Pressure Humidity
00:00 +11°C° 1.9 mm 7 mps 749 mmHg 95%
01:00 +10°C° 0.9 mm 6 mps 748 mmHg 95%
02:00 +10°C° 0.9 mm 6 mps 748 mmHg 95%
03:00 +10°C° 0.9 mm 5 mps 748 mmHg 94%
04:00 +9°C° 0.6 mm 5 mps 748 mmHg 93%
05:00 +9°C° 0.6 mm 6 mps 749 mmHg 92%
06:00 +9°C° 0.6 mm 6 mps 749 mmHg 91%
07:00 +9°C° 0.4 mm 6 mps 749 mmHg 89%
08:00 +10°C° 0.4 mm 5 mps 749 mmHg 88%
09:00 +10°C° 0.4 mm 5 mps 750 mmHg 86%
10:00 +10°C° 0.1 mm 6 mps 750 mmHg 82%
11:00 +11°C° 0.1 mm 6 mps 750 mmHg 78%
12:00 +11°C° 0.1 mm 7 mps 750 mmHg 74%
13:00 +11°C° 0.2 mm 7 mps 751 mmHg 75%
14:00 +11°C° 0.2 mm 7 mps 751 mmHg 77%
15:00 +11°C° 0.2 mm 7 mps 751 mmHg 78%
16:00 +10°C° 0.2 mm 7 mps 751 mmHg 82%
17:00 +9°C° 0.2 mm 6 mps 751 mmHg 85%
18:00 +8°C° 0.2 mm 6 mps 752 mmHg 89%
19:00 +8°C° 0.1 mm 6 mps 752 mmHg 89%
20:00 +8°C° 0.1 mm 6 mps 752 mmHg 88%
21:00 +6°C° 0.1 mm 7 mps 753 mmHg 88%
22:00 +6°C° 0.1 mm 7 mps 753 mmHg 88%
23:00 +6°C° 0.1 mm 7 mps 753 mmHg 88%
Show more